Theta_e
320 320 320 320 319 318 317 315 323 322 321 325 326 327 325 323 324 322 323 324 326 327 327 329 329 328 330 326 326 328 327 329 330 333 330 330 337 338 335 336 338 340 342 338
320 320 319 319 318 318 316 319 321 322 321 327 327 325 324 325 324 324 322 323 323 326 327 328 327 328 326 326 327 329 327 329 330 331 331 331 332 334 336 334 337 338 337 338
319 319 319 318 318 318 316 318 323 323 323 324 327 326 326 326 323 323 321 323 324 326 326 326 328 327 327 326 327 322 324 328 329 330 332 332 332 335 334 333 333 332 332 335
319 318 318 317 317 317 316 317 321 324 326 326 325 327 327 326 324 323 322 325 324 324 325 325 326 326 327 326 323 326 328 331 330 332 332 331 332 334 334 335 336 336 340 339
318 318 316 316 316 316 317 320 321 325 328 328 328 323 327 326 325 323 323 324 323 324 324 324 326 326 326 326 327 327 326 331 331 333 333 334 331 331 331 336 336 338 340 343
317 316 315 314 314 314 318 316 318 321 323 328 329 327 326 326 324 321 321 323 324 324 324 324 324 323 325 326 327 327 327 328 330 331 332 331 334 334 334 335 337 337 337 346
316 315 314 313 313 312 314 315 315 318 321 324 328 327 327 327 326 323 319 321 324 323 323 322 323 324 325 325 326 325 327 327 328 329 332 331 333 334 335 336 338 340 342 343
316 314 314 313 312 312 312 315 315 317 321 320 322 327 329 328 325 322 319 322 322 322 322 323 323 324 325 325 326 325 327 328 328 328 329 328 329 333 333 333 334 336 337 338
315 314 313 313 312 312 312 313 314 315 320 321 320 325 327 329 323 321 321 315 320 319 321 322 324 321 322 323 326 325 326 329 328 328 327 328 331 332 331 331 331 334 333 335
315 313 313 313 312 312 312 312 314 314 318 318 320 321 325 326 322 322 320 317 317 319 323 323 323 323 326 324 325 327 327 327 327 328 328 327 330 329 329 332 334 332 332 335
315 313 313 313 312 312 311 313 313 313 318 318 318 320 325 326 323 323 321 319 320 320 323 323 324 325 328 326 326 326 326 326 327 327 329 329 328 329 331 332 332 333 335 335
315 313 312 313 312 312 311 312 313 313 313 317 317 317 318 321 323 325 320 323 321 322 324 324 325 326 328 324 325 329 325 324 327 325 329 330 329 330 329 330 333 333 332 330
315 313 312 314 313 312 312 311 312 313 313 317 317 317 315 316 318 321 323 322 324 323 326 325 326 326 325 326 325 325 328 326 325 327 326 327 329 329 329 331 328 326 326 326
314 313 312 314 313 312 313 312 312 312 314 318 320 321 320 319 318 317 319 322 322 324 324 325 326 325 326 324 327 327 327 328 327 328 327 328 329 329 330 329 328 327 326 325
314 312 313 314 313 312 312 311 312 311 314 318 320 318 320 321 320 320 320 320 322 323 324 325 326 325 326 325 326 323 326 327 328 325 326 325 325 328 328 328 328 329 328 326
313 311 314 313 313 312 312 312 313 313 312 315 321 322 325 324 320 322 323 323 323 323 325 325 324 324 325 324 326 324 323 325 325 326 328 326 328 325 327 328 328 328 328 326
312 312 313 313 312 312 312 314 312 313 313 316 322 325 326 320 319 321 323 323 323 323 324 322 324 325 322 323 324 322 323 324 326 327 327 328 327 326 327 327 329 328 328 326
311 313 312 312 311 311 311 313 313 312 313 315 323 327 325 320 322 322 322 323 323 323 323 324 324 324 324 330 323 322 323 325 327 326 326 325 327 327 327 328 329 329 328 327
311 313 310 312 311 312 315 314 312 313 315 320 323 327 325 322 323 323 323 323 324 324 324 325 325 327 333 325 323 323 325 326 324 325 327 326 326 327 327 328 329 328 328 327
313 311 308 308 311 312 312 313 316 315 316 316 320 324 327 323 322 323 323 323 325 326 326 325 326 326 324 322 323 325 324 325 325 326 328 328 327 326 326 328 327 327 326 326
311 308 310 313 316 313 317 320 318 317 320 320 321 323 327 324 325 325 324 325 325 326 326 326 326 327 325 324 324 323 324 325 324 324 324 325 324 325 326 326 326 326 325 326
309 311 314 316 316 317 320 321 320 322 321 320 321 322 323 326 325 325 325 325 326 324 325 326 326 326 325 326 326 326 328 327 325 326 326 325 323 325 326 325 326 325 326 326
310 312 316 318 317 319 320 320 322 322 320 319 319 321 322 325 326 327 328 326 325 325 326 326 326 324 325 326 326 325 326 326 325 325 326 325 323 326 325 323 321 323 324 325
311 316 319 321 321 320 321 321 320 320 320 323 321 320 322 324 327 326 326 326 326 326 326 326 326 324 327 327 326 326 325 325 325 325 325 323 324 324 323 322 321 322 323 322
313 316 322 319 318 319 320 320 320 320 321 324 320 321 322 324 325 326 326 327 327 326 326 325 324 328 328 327 326 326 326 325 325 325 323 322 323 323 322 322 322 321 321 321
313 315 317 318 320 320 320 319 320 321 322 323 321 321 320 322 323 325 325 326 327 325 326 323 325 329 328 328 327 326 325 325 324 323 321 321 322 321 320 320 320 320 321 322
315 314 316 317 318 319 319 320 321 321 322 323 322 323 320 321 322 323 323 324 324 324 323 323 321 324 326 328 328 327 324 324 323 322 322 322 321 320 320 321 320 320 321 321
Wind_Speed
21 20 20 20 20 18 11 1 7 5 12 9 5 7 4 1 5 5 4 3 4 4 0 4 5 3 4 4 3 3 4 6 6 6 3 4 9 12 12 6 8 3 5 2
20 19 19 18 18 18 16 6 3 5 9 7 8 5 6 5 7 9 7 5 3 1 3 4 3 2 3 3 2 6 3 4 6 12 10 6 8 7 12 12 11 12 9 4
19 18 17 16 16 14 14 4 4 7 9 8 9 10 10 9 7 7 5 2 4 6 7 4 2 5 3 0 2 3 4 4 9 7 8 4 4 7 8 12 12 12 6 2
18 17 17 14 14 12 9 3 0 5 7 12 11 7 3 12 8 9 8 6 9 5 4 5 6 4 6 5 2 2 5 6 5 4 2 4 5 0 1 5 8 8 9 3
16 15 16 16 11 10 3 4 4 3 8 5 11 9 12 12 11 10 12 10 10 6 4 3 2 5 4 4 3 1 2 1 6 3 3 3 9 5 4 6 1 0 2 4
13 14 15 16 12 7 2 4 4 4 3 8 10 12 15 11 5 10 10 11 8 9 5 1 1 1 2 2 5 1 4 1 5 5 6 4 10 9 5 3 2 5 8 8
12 14 15 16 14 8 5 6 2 5 8 7 11 6 12 10 10 10 12 11 13 5 10 9 4 4 4 4 1 4 4 4 3 2 6 11 5 3 1 3 1 2 4 3
11 12 14 16 16 10 5 6 3 4 7 12 11 12 11 7 8 12 9 8 3 16 9 4 4 7 9 8 3 3 3 6 4 7 11 3 6 5 6 6 7 3 2 4
10 11 13 16 13 10 6 7 7 3 6 7 13 7 11 8 7 8 9 4 13 11 5 3 5 4 2 4 6 4 4 5 7 6 9 8 6 6 2 1 9 10 3 2
10 10 12 13 12 11 6 7 6 5 8 16 8 9 8 3 6 7 11 10 8 9 6 6 3 3 1 4 5 5 8 7 10 9 9 5 6 6 5 8 3 6 3 1
10 10 11 12 11 10 6 6 8 7 8 17 11 12 10 7 6 7 8 8 5 7 6 4 3 4 5 5 0 3 5 5 5 4 5 8 10 7 6 5 5 4 3 3
10 10 11 10 10 10 9 7 10 9 15 13 11 14 19 16 8 4 7 2 14 9 6 2 2 4 4 7 6 4 6 4 5 4 4 5 9 4 3 3 5 4 4 3
10 11 11 10 10 10 9 9 11 7 8 19 19 18 16 21 23 13 5 4 5 2 6 4 3 3 4 5 7 5 6 4 5 3 9 6 8 6 5 6 7 6 6 4
10 11 11 10 10 10 11 11 12 10 6 6 3 3 9 12 17 21 21 8 4 5 7 6 5 6 4 3 2 6 4 9 7 5 4 5 8 9 12 11 10 8 7 5
10 12 12 11 11 12 11 13 16 14 5 6 10 15 8 12 16 18 19 18 10 8 7 5 6 2 4 2 4 8 9 7 8 6 8 9 7 15 15 16 15 11 8 6
10 12 12 12 13 9 7 4 7 17 17 5 4 5 3 6 13 16 16 18 14 7 9 4 3 2 4 5 9 12 14 13 13 8 5 9 5 15 17 18 16 13 9 6
11 12 12 12 9 8 8 3 2 11 15 4 5 3 3 6 13 10 13 15 11 9 6 6 4 5 5 7 11 11 8 13 12 10 7 8 11 13 18 17 16 14 10 8
10 10 9 6 4 6 10 11 7 11 11 4 4 3 6 9 11 9 10 12 12 7 3 3 5 3 5 4 10 17 16 10 12 13 12 8 6 11 18 17 17 16 14 11
9 7 4 2 4 4 2 9 6 15 4 5 3 3 5 6 4 7 9 10 7 4 6 4 4 3 4 8 11 11 13 15 15 14 11 11 10 14 18 19 17 16 14 13
7 5 3 2 3 6 13 4 5 8 7 5 5 4 3 6 11 8 9 7 4 5 5 4 5 11 18 20 13 9 10 12 11 11 13 12 12 15 17 19 16 15 14 14
5 5 4 5 6 8 3 5 7 8 5 8 9 10 3 1 7 7 6 5 4 5 4 5 6 8 10 15 22 24 21 16 16 14 12 12 13 15 17 16 14 13 13 14
6 4 5 7 5 5 5 5 5 5 4 7 7 10 10 2 2 4 4 5 5 6 8 4 5 5 7 8 9 12 16 21 21 18 14 12 11 14 14 14 13 13 14 13
6 3 3 6 6 4 5 6 4 4 6 5 6 6 9 4 5 2 4 6 7 2 4 8 7 6 6 7 5 7 9 14 19 18 15 12 12 14 14 10 10 12 13 13
5 5 3 5 5 5 5 6 2 6 3 2 3 5 9 5 6 3 4 1 2 5 10 13 8 7 9 8 7 8 9 13 17 18 16 14 16 15 12 11 11 11 10 10
3 4 4 6 5 1 1 3 4 4 2 1 4 5 4 4 4 3 3 5 5 5 7 5 2 1 5 9 8 10 10 13 16 17 16 15 16 14 12 12 12 11 10 8
3 4 4 5 6 8 7 6 6 2 3 3 4 3 4 6 4 6 7 5 4 3 5 6 3 3 0 6 8 8 10 15 16 15 15 16 16 13 13 14 13 12 10 7
4 6 12 10 6 4 2 3 3 4 4 3 3 4 6 2 6 10 5 8 4 6 5 5 5 5 5 2 6 9 12 15 15 15 15 15 14 13 14 15 14 12 12 10
Wind_Direction
334 335 336 337 337 343 338 250 227 197 171 215 234 211 187 179 184 183 203 267 304 276 204 206 214 207 349 11 320 295 17 289 180 157 98 212 297 281 180 181 271 250 224 148
331 334 336 339 342 346 354 312 257 192 179 225 211 159 199 236 213 205 196 214 273 258 246 250 249 175 97 358 326 352 358 267 236 186 172 175 214 228 262 279 127 253 269 94
330 333 337 340 340 343 343 297 221 183 207 252 274 194 215 210 211 234 222 208 230 209 217 211 242 223 132 171 353 355 263 264 290 298 343 110 177 228 234 261 259 255 226 348
327 331 334 340 338 338 344 263 235 328 192 210 223 225 233 217 197 219 209 193 232 221 231 227 232 231 188 176 107 252 293 276 282 319 281 242 143 115 221 259 339 315 75 58
323 327 333 335 340 332 339 293 318 291 281 232 220 184 218 234 232 202 203 235 196 209 246 266 253 250 236 290 162 282 283 257 259 173 137 242 217 208 146 261 57 103 338 105
320 324 333 332 339 339 313 303 294 288 208 220 221 212 230 225 224 222 246 216 202 216 235 202 37 300 319 358 292 305 287 286 249 233 174 225 218 189 207 276 172 301 296 69
315 323 332 332 332 331 287 263 261 260 253 230 229 236 229 221 219 248 213 215 224 117 130 125 160 193 199 206 187 280 258 259 268 235 220 230 77 121 313 273 221 115 125 83
309 321 327 329 326 326 305 267 208 259 260 259 247 236 234 243 242 225 223 169 165 150 156 215 234 220 222 216 250 222 261 257 205 260 226 194 164 190 205 233 177 167 136 149
300 316 324 330 329 329 321 277 243 224 288 241 249 275 239 244 221 184 165 118 152 172 195 202 240 246 295 219 175 241 214 235 266 226 274 252 46 99 168 247 250 160 182 136
296 312 316 330 333 331 310 274 248 210 253 262 258 230 256 207 226 213 157 156 173 190 200 217 241 219 230 234 226 168 203 242 245 232 244 254 106 136 168 227 78 123 139 105
290 303 308 322 331 329 310 265 266 216 256 263 259 243 243 236 232 220 145 149 186 182 215 240 168 248 187 244 322 229 232 235 208 242 260 250 138 147 242 71 122 121 107 100
283 296 305 308 325 318 323 277 275 244 237 256 275 249 241 240 246 295 203 348 166 185 211 211 161 204 185 243 233 182 236 253 344 273 41 91 167 56 135 177 148 133 133 130
279 291 298 279 307 307 296 276 270 268 270 287 258 257 254 240 233 226 263 216 233 101 284 159 199 228 243 217 244 250 183 197 244 219 165 168 183 193 181 169 149 130 117 114
278 288 291 274 290 297 285 269 259 235 279 279 301 258 235 225 221 223 226 240 324 185 216 193 226 243 203 258 3 255 3 160 209 226 159 182 204 201 184 175 162 145 126 110
278 285 288 282 292 292 281 263 252 233 233 319 297 290 265 219 211 217 217 219 222 200 203 213 217 98 197 220 265 251 191 221 216 236 164 215 188 195 191 185 179 171 154 129
277 286 284 290 294 282 263 282 252 227 215 271 279 335 214 209 205 201 203 203 204 214 230 182 140 140 241 261 260 249 235 237 243 271 191 200 179 190 193 193 188 183 174 156
280 280 289 294 281 229 210 234 228 196 191 246 275 230 166 144 144 158 174 186 199 222 194 219 192 195 220 265 259 249 231 232 218 202 170 188 200 193 194 194 193 187 185 173
273 281 297 288 241 231 250 243 258 183 174 246 269 243 179 175 177 151 172 169 183 196 190 172 230 151 240 253 251 241 239 223 202 205 211 237 217 213 193 191 188 190 191 184
264 277 276 253 212 199 180 229 224 176 210 286 248 270 152 177 162 132 157 191 193 133 223 224 205 201 219 233 241 229 215 211 225 222 216 211 213 196 186 188 191 199 200 196
254 251 232 243 198 160 133 94 140 177 215 231 259 266 227 207 180 176 155 203 198 202 201 134 235 238 244 240 233 224 203 206 208 190 191 195 201 195 192 194 201 206 211 207
212 203 204 165 142 181 234 189 201 184 215 209 236 243 244 187 210 176 218 177 184 234 199 232 247 253 242 240 238 235 230 223 208 206 206 207 210 203 196 199 204 211 217 208
199 198 207 153 186 221 232 198 186 213 225 177 221 217 220 162 214 212 188 205 191 238 137 228 253 255 257 225 231 223 219 216 213 208 207 201 206 199 199 202 207 219 214 209
214 218 223 183 174 207 228 193 194 200 188 180 188 190 191 186 202 189 201 195 214 118 224 242 255 266 220 222 231 209 201 200 199 201 199 195 193 187 188 200 204 193 195 202
196 211 225 223 185 220 207 221 229 97 179 128 209 181 196 168 187 183 199 127 220 233 230 244 261 234 237 229 215 198 189 185 184 184 182 183 183 180 186 191 188 190 200 210
220 242 238 224 232 230 221 227 215 174 202 217 172 198 208 186 190 215 140 179 225 222 230 245 43 259 223 217 201 184 174 169 171 171 176 180 180 184 193 193 192 190 196 214
238 242 272 246 254 222 213 229 231 210 216 220 212 187 194 192 210 197 201 191 207 188 228 76 26 29 62 185 182 180 170 170 169 172 175 176 180 187 188 184 187 194 198 214
220 236 241 260 296 272 241 242 221 210 247 228 209 227 187 196 213 217 215 215 198 186 214 22 4 28 21 178 183 174 166 166 171 171 172 176 178 181 184 191 200 206 214 221